Wind_Speed
8 8 8 7 7 6 6 6 6 7 7 8 8 8 9 9 9 9 9 9 9 9 9 9 9 9 8 8 8 8 8 8 8 8 8 8 8 8 7 7 7 7 7
7 7 6 6 5 5 5 5 5 5 6 7 7 7 7 8 8 8 9 9 8 8 8 8 9 8 8 8 8 8 8 9 8 8 8 8 8 8 7 7 7 7 7
6 6 5 5 4 4 4 4 4 5 5 5 6 6 6 7 7 7 8 8 8 8 8 8 8 8 7 7 7 7 8 8 8 8 8 7 7 7 7 6 6 7 6
5 5 5 5 4 4 3 3 3 3 4 4 4 5 5 6 6 7 7 7 7 7 7 7 7 7 7 7 7 7 7 7 7 8 7 7 7 6 6 6 6 6 6
4 4 4 4 4 3 3 2 2 2 3 3 3 3 4 5 5 6 6 6 6 6 6 6 7 7 7 6 6 6 6 6 6 7 7 7 7 6 6 6 6 6 6
4 4 4 4 3 3 3 2 2 2 2 2 2 3 3 4 4 4 5 5 5 5 6 6 6 6 6 6 6 6 6 6 6 6 6 6 6 6 6 6 5 5 5
4 4 3 4 3 3 3 2 2 1 1 1 2 2 2 3 3 4 4 4 5 5 5 5 5 5 5 5 5 6 6 5 5 5 5 5 5 5 6 6 5 5 5
3 3 3 3 3 3 3 2 2 2 1 1 1 1 1 2 2 3 3 4 4 4 5 5 5 4 5 5 5 5 5 5 5 4 4 4 4 4 5 5 5 5 5
3 3 3 3 3 3 3 3 3 2 2 1 1 1 1 1 1 2 3 3 3 4 4 4 4 4 4 4 4 5 5 4 4 4 4 3 3 4 3 3 3 4 4
3 3 3 3 3 3 4 3 3 3 2 2 2 2 1 1 1 1 2 2 3 3 3 3 3 3 3 4 4 4 4 4 3 3 3 3 3 3 3 3 3 3 3
4 3 3 4 4 4 4 4 4 4 3 3 3 2 2 1 1 0 1 1 2 2 2 2 3 3 3 3 3 3 4 3 3 3 3 3 2 2 2 3 2 2 2
5 4 4 4 4 4 4 4 4 4 4 3 3 3 3 2 2 1 1 1 1 1 1 2 2 2 3 3 3 3 3 3 3 2 2 2 2 2 2 2 3 3 2
6 5 5 5 5 4 5 5 4 4 4 4 3 3 3 3 3 2 1 1 1 1 1 1 2 2 2 2 2 2 2 2 2 2 2 1 1 1 2 2 3 3 3
7 6 6 6 5 5 5 5 5 5 5 4 4 4 4 4 3 3 2 2 3 2 2 2 2 2 2 1 1 1 1 2 2 1 1 1 1 1 2 2 2 3 3
8 7 7 7 6 6 6 6 6 5 5 5 4 4 4 4 4 4 4 4 4 3 3 3 3 2 2 2 2 1 1 0 1 0 0 1 1 1 1 2 2 3 3
9 8 7 7 7 7 7 6 6 6 5 5 5 5 5 5 5 5 4 4 4 4 3 3 3 3 3 3 2 2 1 1 1 1 1 1 1 1 1 2 2 2 2
10 9 8 8 7 7 7 7 7 7 7 6 6 6 6 6 6 6 6 6 6 5 5 4 4 4 4 4 3 3 3 3 2 2 2 2 2 2 2 2 2 3 3
11 10 9 8 7 8 8 8 8 7 7 7 7 7 8 8 8 8 8 8 8 7 6 6 6 5 5 5 5 4 4 4 4 4 4 4 4 3 3 3 3 3 3
11 11 10 10 9 9 9 9 9 8 7 7 7 7 8 8 9 9 9 9 9 8 8 8 7 7 6 7 7 7 6 6 6 6 5 5 5 4 4 4 4 4 4
11 12 11 10 10 10 10 10 9 9 8 9 8 8 7 8 9 10 10 10 10 9 9 8 8 8 8 8 8 8 8 8 7 7 7 7 6 6 6 5 6 6 6
12 12 12 11 11 11 11 12 11 10 10 10 10 9 9 9 9 10 9 9 9 10 10 10 9 9 9 9 9 9 9 9 9 9 9 8 8 8 7 7 7 8 8
12 13 13 14 13 12 13 13 12 11 11 11 11 11 9 10 9 9 9 8 8 10 10 10 11 11 11 11 11 11 10 10 11 11 11 11 11 10 10 9 9 10 10
12 13 13 15 14 13 13 13 12 11 12 12 11 11 10 10 10 9 9 9 9 10 11 12 12 12 12 12 12 11 11 12 12 12 12 12 12 12 12 11 11 11 12
13 13 14 15 15 15 15 13 12 12 13 13 12 12 11 11 11 10 9 9 10 11 12 12 13 13 14 13 13 13 13 13 14 14 14 14 14 14 14 14 13 13 13
13 14 15 15 16 16 15 14 13 13 13 14 13 12 11 11 11 10 10 11 11 11 12 13 14 15 15 15 15 15 15 15 15 16 16 17 16 16 16 16 16 15 15
14 14 15 15 16 16 16 15 14 14 14 15 14 14 12 12 11 11 11 12 12 13 13 14 14 15 16 16 16 16 17 17 18 18 18 18 18 18 19 18 18 18 18
Wind_Direction
83 79 79 80 82 86 86 88 91 93 94 97 97 96 98 97 97 97 96 96 95 96 95 92 90 90 91 90 87 84 81 80 84 87 83 83 82 82 80 78 78 78 82
81 79 74 74 76 79 83 87 93 95 96 98 98 98 100 100 100 99 98 99 99 98 95 94 93 91 91 92 89 85 83 83 87 89 85 81 79 79 80 81 76 74 76
77 73 69 65 67 68 73 86 93 96 99 100 99 98 99 101 102 102 102 101 101 100 98 96 95 93 94 94 91 87 88 89 88 90 85 78 75 74 73 72 73 71 70
68 63 61 55 49 47 56 75 89 94 97 99 99 98 99 102 104 104 104 105 104 102 100 99 96 95 94 94 92 91 92 92 90 89 85 81 77 73 69 67 68 65 66
59 55 52 48 39 36 39 50 69 82 90 93 93 97 100 102 105 107 106 107 108 106 104 103 101 97 95 96 94 95 93 92 90 86 82 81 78 72 67 63 64 61 61
47 44 39 34 26 22 19 25 43 64 74 85 87 93 98 99 101 106 106 108 107 106 105 105 104 101 97 98 97 97 93 94 94 88 84 79 76 70 65 62 60 56 55
36 35 29 21 14 9 6 15 29 48 61 69 76 85 96 98 97 101 101 108 108 105 105 106 105 105 103 100 99 101 96 95 99 96 87 80 74 72 67 62 60 54 51
26 29 23 11 3 359 351 349 353 343 337 17 38 54 73 86 92 98 98 104 109 106 105 107 107 111 110 106 101 104 101 101 99 98 91 82 73 69 63 60 54 46 41
14 18 15 4 356 350 343 341 343 341 341 331 326 351 19 47 86 104 104 106 108 108 107 109 110 111 116 110 102 107 107 106 102 97 91 83 75 66 61 55 47 38 35
6 5 7 1 352 347 340 337 335 326 325 323 319 320 329 346 21 115 117 114 109 108 110 112 109 114 116 116 107 107 108 107 102 99 90 78 70 62 54 44 36 29 24
8 1 5 357 352 342 336 333 328 318 313 316 311 300 296 307 323 152 143 129 118 112 117 126 119 116 123 122 112 107 107 106 103 96 85 74 62 50 43 30 20 13 7
10 359 358 357 355 347 341 334 325 316 311 304 302 299 289 282 284 226 202 190 162 137 138 139 129 123 124 122 108 108 106 93 90 94 80 65 54 41 29 15 9 1 351
4 356 350 353 350 346 342 339 325 318 317 303 295 302 294 284 275 259 245 247 250 241 205 184 154 149 151 132 118 109 115 102 91 94 83 50 40 29 17 8 8 1 349
4 358 354 356 348 343 340 335 330 324 314 301 298 304 298 286 281 271 255 265 272 263 242 222 206 200 200 190 166 116 111 108 103 89 65 11 2 5 0 356 0 357 356
8 2 358 354 348 343 337 331 327 332 325 317 307 302 298 290 282 270 268 275 271 267 258 241 230 225 226 220 213 208 183 139 154 183 284 315 321 338 351 348 349 352 347
4 359 358 356 352 349 341 331 325 326 321 320 314 306 297 286 283 274 270 279 280 268 248 239 240 247 247 233 232 242 239 252 251 241 262 289 310 316 332 341 342 343 344
4 1 360 358 355 355 350 339 330 326 315 313 307 295 291 282 280 277 270 273 276 272 261 252 249 253 254 249 247 253 258 266 267 254 266 274 289 297 307 320 327 325 328
4 2 359 356 354 354 351 347 342 331 319 313 311 297 289 280 276 272 267 267 268 265 262 258 254 250 253 254 252 253 256 264 274 266 265 269 276 283 292 301 313 313 312
359 357 354 352 352 350 347 344 347 342 332 324 318 305 293 284 279 272 265 265 265 264 262 256 254 251 254 255 256 257 258 259 267 269 266 270 268 268 280 289 296 303 302
350 350 350 351 349 346 343 340 341 339 331 323 322 320 306 291 284 276 268 263 263 264 264 258 256 255 254 256 259 261 262 261 264 266 266 269 269 269 275 284 290 295 297
347 345 347 348 343 341 341 338 335 335 330 324 320 317 313 304 291 279 268 266 263 261 262 260 256 257 257 258 262 266 265 265 268 269 268 271 273 273 274 278 284 289 294
344 345 346 345 341 339 335 333 330 329 326 324 319 318 315 308 299 282 277 270 266 261 258 258 255 257 260 260 261 266 268 268 270 271 270 273 276 277 277 276 280 281 283
336 337 339 340 338 335 336 331 326 326 325 323 321 316 312 304 303 289 280 274 271 263 259 260 257 259 262 261 261 262 265 268 270 269 270 272 275 276 278 278 279 280 281
332 332 334 334 335 335 333 330 325 325 324 322 320 314 310 306 303 297 287 282 276 266 263 262 262 263 264 266 266 266 266 268 268 270 271 272 273 273 275 277 277 279 283
329 330 328 328 330 330 331 331 328 324 323 323 321 318 311 307 304 299 287 280 278 277 267 265 266 266 265 265 266 266 268 269 270 272 272 273 274 274 273 275 277 278 280
324 326 327 326 326 326 326 327 324 322 321 322 321 321 316 311 307 304 295 286 283 281 274 269 270 271 267 267 266 266 269 270 272 273 275 276 277 277 277 276 275 278 280
Height
5895 5895 5895 5895 5895 5895 5895 5895 5894 5893 5893 5892 5892 5892 5892 5892 5891 5891 5891 5892 5892 5892 5892 5892 5893 5893 5893 5893 5894 5894 5894 5894 5895 5895 5896 5896 5896 5897 5897 5897 5897 5898 5898
5897 5897 5897 5897 5897 5897 5897 5896 5896 5895 5895 5894 5894 5893 5893 5893 5893 5893 5893 5893 5893 5894 5894 5894 5894 5894 5894 5895 5895 5895 5895 5896 5896 5897 5897 5897 5898 5898 5898 5899 5899 5899 5899
5898 5898 5898 5899 5899 5899 5898 5898 5897 5897 5896 5896 5896 5895 5895 5895 5895 5895 5895 5895 5895 5895 5895 5896 5896 5896 5896 5896 5897 5897 5897 5898 5898 5898 5899 5899 5899 5899 5900 5900 5900 5900 5900
5900 5900 5900 5900 5900 5900 5900 5899 5899 5898 5898 5897 5897 5897 5896 5896 5896 5896 5896 5896 5897 5897 5897 5897 5897 5897 5898 5898 5898 5898 5899 5899 5899 5899 5900 5900 5901 5901 5901 5901 5901 5901 5902
5901 5901 5901 5901 5901 5901 5901 5900 5900 5900 5899 5899 5899 5898 5898 5898 5898 5898 5898 5898 5898 5898 5898 5898 5899 5899 5899 5899 5899 5900 5900 5900 5901 5901 5901 5901 5902 5902 5902 5902 5902 5903 5903
5903 5902 5902 5903 5903 5902 5902 5902 5901 5901 5901 5900 5900 5900 5899 5899 5899 5899 5899 5899 5899 5899 5899 5900 5900 5900 5900 5901 5901 5901 5901 5902 5902 5903 5903 5903 5903 5903 5903 5903 5904 5904 5904
5904 5904 5903 5904 5904 5903 5903 5903 5903 5902 5902 5902 5901 5901 5901 5901 5900 5900 5900 5900 5900 5900 5901 5901 5901 5902 5902 5902 5902 5902 5903 5903 5903 5904 5904 5904 5904 5904 5905 5905 5905 5905 5905
5905 5905 5904 5904 5904 5904 5904 5904 5904 5903 5903 5903 5902 5902 5902 5902 5901 5901 5901 5901 5901 5901 5902 5902 5902 5902 5903 5903 5903 5903 5904 5904 5904 5905 5905 5905 5905 5905 5906 5906 5906 5906 5906
5906 5905 5905 5905 5905 5905 5905 5904 5904 5904 5904 5903 5903 5903 5903 5903 5902 5902 5902 5902 5902 5902 5903 5903 5903 5903 5903 5904 5904 5904 5905 5905 5906 5906 5906 5906 5906 5907 5907 5907 5907 5907 5907
5906 5906 5906 5905 5905 5905 5905 5905 5905 5905 5904 5904 5904 5904 5903 5903 5903 5903 5903 5903 5903 5904 5904 5904 5904 5904 5904 5905 5905 5905 5906 5906 5906 5907 5907 5907 5907 5907 5907 5907 5908 5908 5908
5907 5906 5906 5906 5906 5906 5906 5905 5905 5905 5905 5905 5904 5904 5904 5904 5904 5904 5904 5904 5904 5904 5905 5905 5905 5905 5905 5906 5906 5906 5906 5906 5907 5907 5907 5908 5908 5908 5908 5908 5908 5908 5908
5908 5907 5907 5907 5906 5906 5906 5906 5905 5905 5905 5905 5905 5905 5905 5905 5905 5905 5905 5905 5905 5905 5905 5906 5906 5906 5906 5906 5907 5907 5907 5907 5908 5908 5908 5908 5908 5908 5908 5908 5908 5908 5908
5909 5908 5908 5907 5907 5907 5907 5906 5906 5906 5905 5905 5905 5905 5905 5905 5905 5905 5906 5905 5906 5906 5906 5906 5906 5907 5907 5907 5907 5907 5908 5908 5908 5908 5908 5908 5909 5909 5909 5909 5908 5908 5908
5910 5909 5908 5908 5907 5907 5907 5907 5906 5906 5905 5905 5905 5905 5905 5905 5905 5906 5906 5906 5906 5906 5906 5906 5907 5907 5907 5908 5908 5908 5908 5908 5909 5908 5908 5909 5909 5909 5909 5909 5908 5908 5908
5911 5910 5909 5909 5908 5907 5907 5906 5906 5906 5905 5905 5905 5905 5905 5905 5905 5905 5905 5906 5906 5906 5906 5906 5907 5907 5908 5908 5908 5908 5908 5909 5909 5909 5909 5909 5909 5909 5909 5909 5908 5908 5908
5911 5910 5910 5909 5908 5908 5907 5906 5906 5905 5905 5905 5904 5904 5904 5905 5905 5905 5905 5905 5906 5906 5906 5906 5907 5907 5908 5908 5908 5908 5908 5908 5908 5909 5909 5909 5909 5909 5909 5908 5908 5908 5907
5912 5911 5910 5910 5909 5908 5907 5906 5906 5905 5905 5904 5904 5904 5904 5904 5904 5904 5904 5905 5905 5905 5905 5906 5906 5906 5907 5908 5908 5908 5908 5908 5908 5908 5908 5908 5909 5909 5908 5908 5908 5908 5907
5913 5912 5911 5910 5909 5909 5908 5907 5906 5905 5904 5904 5903 5903 5903 5903 5903 5903 5903 5904 5904 5904 5904 5905 5905 5906 5906 5907 5907 5907 5908 5908 5908 5908 5908 5908 5908 5908 5908 5908 5908 5907 5907
5913 5912 5911 5910 5910 5909 5908 5907 5906 5905 5904 5903 5902 5902 5902 5902 5902 5901 5902 5902 5902 5903 5903 5903 5904 5904 5905 5906 5906 5907 5907 5907 5907 5907 5908 5907 5907 5907 5907 5907 5907 5907 5906
5913 5912 5911 5910 5909 5909 5908 5907 5905 5904 5903 5902 5901 5901 5900 5900 5899 5899 5900 5900 5901 5901 5901 5902 5902 5903 5903 5904 5905 5906 5906 5906 5906 5906 5907 5906 5906 5906 5906 5906 5906 5906 5905
5914 5912 5911 5910 5909 5908 5907 5906 5905 5903 5902 5901 5900 5899 5899 5898 5897 5896 5897 5897 5898 5899 5900 5900 5900 5901 5902 5902 5903 5904 5904 5905 5905 5905 5905 5905 5905 5905 5905 5905 5904 5904 5904
5914 5913 5911 5910 5909 5907 5906 5905 5903 5902 5901 5900 5899 5898 5897 5896 5895 5894 5895 5895 5896 5897 5897 5898 5899 5899 5900 5900 5901 5901 5902 5903 5903 5903 5903 5903 5903 5903 5903 5902 5902 5902 5902
5913 5912 5911 5909 5908 5906 5905 5903 5902 5901 5900 5899 5897 5896 5895 5894 5894 5893 5893 5893 5894 5894 5895 5896 5896 5897 5897 5898 5898 5899 5899 5900 5900 5901 5900 5900 5900 5900 5900 5900 5900 5899 5899
5912 5911 5910 5909 5907 5905 5903 5902 5900 5899 5898 5897 5896 5895 5894 5893 5892 5891 5891 5892 5892 5892 5892 5893 5894 5894 5895 5895 5896 5896 5897 5897 5897 5897 5897 5897 5897 5897 5897 5896 5896 5896 5896
5911 5910 5909 5907 5906 5904 5902 5900 5899 5898 5896 5895 5894 5892 5892 5891 5890 5889 5889 5889 5889 5889 5890 5890 5891 5891 5891 5892 5893 5893 5893 5893 5893 5894 5894 5893 5893 5893 5893 5893 5892 5892 5892
5910 5909 5907 5906 5904 5903 5901 5899 5897 5896 5894 5893 5892 5890 5889 5888 5887 5887 5886 5886 5886 5887 5887 5887 5887 5888 5888 5889 5889 5889 5890 5890 5890 5890 5890 5889 5889 5889 5889 5888 5888 5887 5887